sat.trackr.live / text

‹ back to catalog

STARLINK-31229

NORAD 58986 · 2024-031X

PAYLOAD ACTIVE UNKNOWN

§ Identity

Operator
Country
US
Launch date
2024-02-15
Launch site
AFWTR
Launch vehicle
Mass (kg)
RCS (m²)

Purposes: comms

External: N2YO · Heavens-Above · Gunter

§ Orbital elements

Epoch: 2026-09-19T23:52:29.579520Z

Period
93.85 min
Inclination
53.1599°
Eccentricity
0.0001278
Mean motion
15.34387009 rev/d
Perigee alt
461.9 km
Apogee alt
463.6 km
Semi-major
6,840.9 km
B*
-4.7086e-6
RAAN
111.9300°
Arg perigee
86.8422°
Mean anomaly
273.2727°
Rev number
14,629

§ Raw data

STARLINK-312291 58986U 24031X   26262.99478680 -.00000535  00000+0 -47086-5 0  99992 58986  53.1599 111.9300 0001278  86.8422 273.2727 15.34387009146295

JSON: /api/v1/satellites/58986 · /tle

For live sub-satellite position, see the globe view (requires WebGL).

§ Visibility from observer

Set your observer location to see the next 7 days of passes ≥ 10°. The values pass through the URL so the page stays shareable.

No JS? Fill the form by hand. The geolocation button needs JavaScript.